Wind_Speed
1 3 6 10 14 13 3 4 5 8 10 11 11 11 9 6 4 4 4 4 5 6 8 8 9 9 8 7 5 8 11 13 15 17 20 24 28 25 22 24 21 21 21 20 19
2 3 5 8 11 13 4 2 4 6 8 9 10 9 7 7 6 6 7 6 6 7 7 8 9 10 11 9 7 8 11 12 15 18 21 24 26 22 17 19 21 21 20 19 18
5 3 4 5 7 9 10 4 5 7 7 6 6 7 7 7 7 7 8 7 6 7 7 8 8 7 7 9 10 9 10 10 14 18 20 21 22 15 12 14 22 21 19 18 16
6 3 4 4 5 5 7 9 11 10 8 7 5 5 6 8 7 7 6 7 7 7 8 9 10 11 9 9 9 10 9 10 13 14 16 16 15 15 19 19 20 18 18 17 14
6 5 3 4 4 3 3 4 7 9 11 8 5 4 5 8 7 7 7 7 6 7 8 9 10 10 10 10 9 8 9 10 10 13 15 11 10 12 16 22 21 20 20 17 13
8 7 6 5 5 4 2 3 4 6 10 12 4 3 5 7 6 7 7 7 7 7 8 8 8 8 9 9 8 8 9 8 9 11 11 9 8 5 18 24 22 21 21 17 14
12 11 10 8 6 7 3 3 3 4 6 8 8 3 4 6 7 8 7 7 7 7 7 8 8 8 8 9 9 8 7 7 7 8 7 8 10 8 16 20 18 19 21 17 15
12 10 10 9 7 8 5 4 4 4 4 5 5 6 4 6 8 7 8 8 7 7 7 7 8 8 8 7 8 9 10 7 6 6 7 8 8 7 10 18 21 18 20 19 16
9 7 7 7 7 8 5 5 5 5 6 5 6 4 5 6 6 7 8 7 7 7 7 7 7 7 8 7 7 8 7 7 5 5 7 9 7 5 6 8 19 21 20 21 19
7 7 8 9 8 7 8 7 6 6 7 7 8 6 6 6 6 6 6 6 6 6 7 7 7 7 8 7 5 6 5 4 2 4 4 4 4 2 2 7 15 23 20 21 21
6 6 7 7 7 7 7 9 10 9 7 8 10 10 10 8 7 6 5 5 4 4 5 5 5 6 7 8 9 7 7 6 4 3 4 4 4 2 3 7 11 23 27 24 23
8 8 7 7 8 9 9 10 11 12 12 12 12 13 12 12 11 8 8 6 3 1 1 3 4 5 5 6 6 7 7 7 8 8 6 5 4 3 4 7 9 14 22 25 25
12 12 12 13 13 14 15 15 15 16 15 15 15 15 15 15 15 11 11 9 7 5 4 3 5 5 6 7 8 8 8 8 10 12 13 9 6 6 6 8 10 10 15 21 23
12 13 14 14 16 16 17 17 18 18 17 18 18 18 17 17 18 17 15 15 13 11 9 9 8 8 8 9 10 10 8 8 8 12 14 12 7 6 8 10 11 11 12 15 17
16 17 17 16 16 16 16 15 16 16 18 18 18 18 18 17 19 20 20 20 19 17 16 15 15 15 14 14 13 14 13 12 9 9 13 13 12 9 11 12 12 12 12 13 14
16 16 16 15 15 16 17 16 15 16 17 17 18 20 21 22 21 22 24 24 23 22 22 22 21 21 20 20 18 18 17 16 15 13 13 12 13 11 13 13 13 14 13 13 13
15 15 14 14 14 14 14 14 15 16 17 18 19 19 21 23 24 26 28 27 28 29 29 29 27 28 26 26 25 23 22 21 19 17 16 15 14 13 12 13 13 14 15 15 15
13 14 14 14 13 13 13 14 14 16 17 18 19 21 22 21 24 27 30 31 31 33 34 34 34 33 33 31 30 29 28 26 23 20 18 19 20 18 16 13 14 14 16 17 17
14 15 16 17 17 16 17 17 18 19 20 20 21 23 22 23 26 27 29 31 31 31 33 35 35 34 33 33 33 30 29 27 26 25 23 24 25 25 22 16 16 17 18 19 19
20 22 23 23 24 25 23 23 24 24 24 24 24 26 26 26 27 29 31 31 32 31 32 33 34 33 33 32 34 34 34 31 30 29 27 28 28 31 26 21 19 19 21 21 21
27 27 29 28 27 26 26 26 26 27 28 27 28 29 29 31 32 33 33 31 32 31 32 33 34 33 34 33 33 35 35 34 34 32 29 30 32 33 32 30 27 26 25 25 23
31 31 30 27 24 23 24 25 25 27 28 30 32 31 32 33 34 36 35 35 35 35 35 34 36 34 35 36 36 36 36 35 34 33 32 31 35 34 37 36 34 31 30 28 27
34 33 30 25 24 24 24 25 26 27 29 30 32 32 33 34 36 38 37 35 35 38 38 37 40 37 37 37 36 37 37 37 36 34 32 33 38 38 40 41 41 39 37 33 30
30 28 26 24 24 24 25 25 26 27 29 31 32 33 34 35 35 37 36 35 35 38 41 42 42 41 40 42 40 38 38 37 37 38 35 35 37 38 41 44 44 44 42 40 37
25 27 27 26 26 27 27 27 29 29 30 31 32 32 33 35 37 37 37 38 39 40 41 42 41 42 43 43 44 43 42 41 42 40 40 40 41 45 46 47 47 46 45 45 42
25 26 29 30 29 30 29 31 32 32 31 32 34 36 37 39 40 41 42 43 43 43 44 44 45 45 43 44 46 48 47 45 44 44 46 47 48 50 50 49 50 50 49 49 49
27 28 29 31 31 33 33 33 33 34 34 36 37 39 39 40 41 43 45 46 46 45 46 48 46 45 45 45 45 47 49 50 50 50 50 49 50 52 55 54 54 55 55 55 55
Wind_Direction
325 0 16 26 12 17 44 40 25 21 27 35 37 44 47 51 46 31 22 4 358 356 357 359 2 356 347 336 295 259 257 263 279 282 280 283 282 287 266 248 233 212 216 210 205
258 329 8 28 17 22 20 339 351 357 7 19 27 31 24 30 29 21 6 10 6 8 359 356 354 354 355 341 316 286 276 281 283 285 286 285 285 282 263 249 224 212 212 207 205
245 296 349 18 18 25 37 358 324 322 324 343 4 16 12 7 2 359 2 359 1 1 1 357 360 351 347 341 337 308 295 287 283 287 287 292 292 262 234 225 218 212 207 207 208
236 252 320 355 359 9 35 54 49 30 341 306 316 347 354 355 2 355 353 356 357 359 2 5 5 12 354 336 334 322 305 290 285 286 291 308 302 237 200 210 212 213 209 207 208
235 245 277 312 323 329 360 35 48 34 25 360 285 300 326 341 356 349 351 348 348 355 359 6 8 15 11 349 327 322 304 294 288 295 299 307 300 238 212 201 202 202 206 208 213
253 257 267 277 285 288 299 327 20 29 25 23 7 281 311 324 344 344 348 344 345 351 356 358 2 12 19 10 354 325 317 303 298 306 304 296 297 239 198 204 194 202 206 205 203
263 265 269 265 263 267 256 298 350 4 19 23 26 326 324 320 331 334 339 339 339 348 348 348 349 356 10 13 8 359 335 323 307 313 325 266 271 239 224 210 201 199 206 210 211
268 271 268 260 255 263 253 263 315 339 339 359 15 16 319 327 319 320 323 326 326 331 337 342 348 346 350 357 2 6 358 341 315 301 299 288 268 256 231 217 211 206 206 209 217
269 268 263 257 253 254 263 260 284 316 320 319 325 340 344 331 319 318 320 323 319 319 312 322 335 341 339 338 345 357 6 328 301 301 299 292 293 265 243 231 209 213 198 208 217
271 270 268 265 261 251 264 275 287 302 309 308 307 306 317 306 316 316 316 316 320 316 314 320 320 327 327 334 331 330 325 316 319 279 292 316 315 314 236 211 209 214 218 205 216
272 278 274 270 273 278 282 290 296 299 297 291 290 285 280 287 289 295 296 303 318 321 315 318 330 339 336 333 334 314 287 296 316 309 300 318 4 297 213 209 215 214 220 219 213
267 273 277 280 285 285 283 280 281 282 280 278 279 279 277 276 273 280 272 265 262 256 314 331 353 349 346 349 334 301 302 296 300 295 295 297 269 255 254 252 246 223 223 230 231
270 271 272 273 273 273 274 274 275 275 277 280 277 278 281 277 269 269 260 251 254 248 270 287 308 318 318 327 326 344 339 309 299 290 292 292 287 282 264 259 247 246 228 232 237
276 274 273 272 273 274 270 275 276 277 280 280 279 279 278 274 270 265 261 256 259 263 264 270 277 287 295 302 309 312 316 326 306 295 295 290 277 272 265 264 254 241 234 236 235
282 281 281 282 282 281 280 281 283 285 284 284 282 280 278 274 270 268 266 262 262 263 267 270 275 281 286 291 292 294 299 297 296 296 290 293 288 269 253 247 252 246 237 233 238
280 279 280 282 283 282 283 282 282 281 280 278 275 275 275 274 272 271 271 270 268 266 267 269 273 277 283 286 287 287 287 286 286 285 286 283 281 273 257 252 248 250 248 242 241
283 282 282 281 280 279 280 283 282 283 281 280 278 276 275 275 276 273 272 273 273 273 271 271 270 274 277 277 279 280 282 281 279 279 279 279 279 272 260 259 253 249 248 253 248
289 292 294 297 300 300 297 295 293 286 282 282 283 281 281 281 277 276 274 273 272 272 273 274 275 274 275 274 274 275 275 275 274 272 271 269 271 270 267 266 263 256 249 246 248
298 300 302 300 300 302 302 301 296 291 291 290 287 285 284 283 280 277 277 277 275 274 276 276 272 272 271 271 270 269 269 269 267 265 262 262 262 262 264 264 261 259 256 248 245
297 299 298 294 292 292 288 287 288 287 286 286 286 285 287 283 280 280 280 282 281 280 277 274 276 276 274 270 268 268 266 265 263 261 258 258 259 261 263 259 257 253 251 248 244
294 298 298 296 291 286 283 282 284 284 283 283 282 282 281 282 280 279 279 280 282 282 281 278 275 275 273 272 269 268 267 266 265 264 260 260 260 263 263 259 252 247 247 249 247
293 294 297 290 287 288 288 287 285 284 285 284 283 284 282 281 279 280 282 284 284 283 282 279 277 275 271 270 269 267 267 266 267 266 263 259 258 260 262 259 257 254 248 246 252
290 289 287 281 282 286 286 288 289 286 283 282 282 280 280 280 282 281 282 283 281 280 279 277 275 274 272 270 268 268 267 265 266 265 264 261 258 254 254 257 260 259 256 253 249
287 284 282 280 285 289 292 291 288 287 287 286 284 282 282 282 281 282 283 280 278 278 278 278 276 275 273 273 271 268 265 265 264 263 262 259 261 258 257 259 258 258 259 257 255
283 283 281 281 284 286 289 291 289 287 283 283 282 282 282 283 281 280 278 279 280 279 278 278 277 275 273 271 270 269 267 266 263 263 263 262 258 260 259 260 262 263 264 264 263
284 285 283 283 287 290 290 291 290 289 288 285 285 285 283 281 281 283 283 282 280 279 278 276 275 273 272 271 270 268 266 263 260 260 260 261 261 261 262 266 267 268 268 268 266
284 285 285 286 289 289 291 290 289 289 289 291 292 289 286 285 284 283 282 281 280 280 278 277 277 273 271 268 265 265 267 265 263 261 260 258 260 263 264 264 265 266 267 268 268
Height
5872 5871 5870 5868 5866 5864 5863 5862 5861 5860 5859 5857 5856 5855 5853 5852 5852 5851 5850 5850 5848 5847 5846 5845 5843 5842 5840 5839 5839 5839 5839 5838 5838 5838 5837 5835 5834 5835 5839 5840 5842 5845 5849 5852 5856
5871 5871 5869 5868 5867 5864 5863 5862 5861 5860 5859 5858 5856 5855 5854 5853 5852 5851 5851 5849 5848 5846 5846 5844 5842 5840 5839 5838 5837 5836 5836 5836 5834 5833 5832 5831 5830 5831 5834 5837 5840 5842 5846 5849 5853
5871 5870 5869 5868 5867 5865 5863 5862 5861 5860 5859 5858 5857 5855 5854 5853 5853 5851 5850 5849 5848 5846 5845 5844 5841 5840 5838 5837 5835 5833 5832 5832 5831 5829 5828 5827 5825 5826 5829 5833 5836 5839 5843 5846 5850
5869 5869 5869 5868 5866 5865 5864 5862 5861 5859 5858 5857 5856 5855 5854 5853 5853 5851 5850 5849 5847 5846 5844 5842 5840 5838 5836 5835 5833 5832 5830 5829 5828 5826 5826 5824 5822 5822 5823 5829 5833 5838 5841 5844 5847
5867 5867 5867 5867 5866 5865 5864 5862 5861 5860 5858 5855 5854 5854 5853 5852 5852 5850 5849 5848 5847 5845 5844 5842 5840 5838 5836 5834 5833 5831 5829 5828 5826 5824 5822 5822 5820 5819 5822 5824 5830 5834 5838 5842 5845
5865 5865 5865 5865 5865 5864 5863 5862 5861 5859 5857 5855 5853 5853 5853 5852 5851 5849 5848 5847 5846 5844 5843 5841 5840 5838 5837 5835 5833 5830 5828 5826 5825 5823 5821 5820 5819 5819 5820 5821 5827 5832 5836 5839 5842
5863 5863 5864 5863 5863 5862 5862 5861 5860 5859 5857 5855 5853 5853 5852 5851 5849 5848 5847 5846 5845 5843 5842 5841 5839 5838 5837 5835 5833 5830 5827 5825 5824 5822 5820 5818 5818 5819 5819 5823 5827 5831 5834 5837 5840
5861 5861 5861 5861 5861 5861 5860 5860 5859 5858 5857 5855 5853 5852 5851 5850 5848 5847 5846 5845 5844 5843 5841 5840 5839 5838 5837 5835 5833 5830 5827 5824 5823 5821 5819 5818 5818 5818 5818 5821 5825 5829 5833 5836 5838
5858 5858 5859 5859 5859 5859 5858 5858 5858 5857 5856 5854 5853 5851 5850 5849 5848 5846 5844 5844 5842 5841 5840 5839 5838 5837 5836 5834 5832 5830 5827 5825 5822 5820 5819 5818 5817 5817 5817 5818 5821 5825 5829 5832 5835
5857 5857 5857 5857 5857 5856 5856 5856 5856 5855 5854 5853 5852 5852 5850 5848 5846 5845 5843 5842 5841 5840 5839 5838 5837 5836 5834 5832 5831 5829 5828 5826 5823 5821 5819 5817 5816 5816 5816 5817 5818 5823 5826 5829 5831
5855 5855 5855 5855 5855 5854 5855 5854 5855 5854 5852 5851 5849 5848 5846 5846 5844 5843 5842 5841 5839 5839 5837 5837 5836 5834 5833 5831 5829 5828 5827 5825 5823 5820 5817 5816 5816 5815 5814 5815 5816 5817 5820 5823 5827
5853 5853 5853 5852 5852 5852 5852 5851 5851 5851 5849 5847 5846 5845 5844 5843 5842 5841 5841 5840 5838 5837 5836 5836 5834 5833 5832 5830 5829 5827 5825 5823 5821 5818 5817 5817 5816 5814 5814 5814 5814 5815 5818 5820 5822
5850 5850 5850 5849 5849 5849 5848 5847 5846 5845 5845 5844 5843 5842 5841 5841 5838 5839 5838 5837 5836 5835 5834 5834 5833 5832 5831 5829 5827 5825 5822 5821 5819 5817 5815 5816 5815 5813 5813 5812 5812 5812 5813 5815 5818
5846 5845 5845 5845 5845 5844 5843 5842 5841 5841 5840 5840 5838 5838 5837 5836 5835 5835 5835 5835 5834 5833 5833 5832 5831 5830 5828 5827 5825 5823 5821 5819 5817 5815 5813 5813 5814 5812 5810 5810 5810 5810 5810 5811 5812
5841 5841 5840 5840 5839 5839 5839 5837 5837 5837 5835 5835 5833 5832 5831 5832 5831 5831 5830 5830 5830 5829 5830 5829 5827 5826 5825 5824 5822 5821 5819 5817 5815 5813 5811 5810 5810 5810 5808 5808 5807 5806 5807 5808 5809
5837 5836 5835 5835 5834 5833 5832 5832 5832 5832 5830 5829 5828 5828 5827 5826 5827 5826 5825 5826 5826 5825 5823 5823 5822 5822 5821 5819 5818 5817 5815 5814 5812 5810 5808 5807 5806 5805 5806 5805 5805 5804 5803 5803 5804
5831 5830 5830 5829 5828 5827 5826 5826 5827 5824 5824 5823 5822 5822 5821 5821 5821 5820 5819 5820 5820 5819 5818 5818 5817 5815 5815 5814 5813 5812 5810 5809 5809 5806 5805 5802 5802 5800 5801 5800 5801 5801 5800 5799 5799
5826 5825 5824 5824 5822 5822 5821 5821 5820 5818 5817 5817 5816 5815 5815 5816 5815 5812 5811 5812 5812 5811 5810 5810 5811 5809 5807 5807 5806 5805 5805 5803 5802 5801 5800 5798 5797 5795 5795 5796 5795 5795 5795 5795 5795
5821 5820 5819 5818 5817 5816 5816 5815 5813 5812 5812 5811 5810 5808 5809 5809 5808 5806 5805 5804 5804 5803 5803 5801 5801 5800 5800 5799 5799 5798 5797 5797 5795 5795 5794 5792 5790 5789 5790 5791 5789 5788 5788 5789 5789
5816 5815 5814 5813 5812 5811 5810 5809 5808 5806 5804 5803 5802 5801 5801 5801 5799 5798 5797 5797 5796 5795 5793 5792 5792 5792 5791 5791 5789 5788 5789 5789 5787 5787 5786 5784 5782 5780 5784 5785 5783 5781 5781 5781 5783
5810 5809 5807 5806 5805 5803 5802 5801 5800 5799 5797 5797 5795 5793 5793 5791 5790 5789 5788 5789 5787 5786 5785 5784 5783 5785 5783 5781 5781 5780 5779 5780 5780 5779 5778 5776 5775 5773 5774 5776 5776 5775 5774 5774 5775
5802 5802 5800 5798 5797 5795 5794 5792 5791 5790 5789 5788 5787 5786 5785 5783 5781 5780 5780 5779 5779 5776 5775 5774 5773 5774 5772 5770 5770 5771 5771 5771 5770 5771 5770 5768 5766 5765 5763 5764 5765 5767 5767 5768 5768
5794 5793 5792 5791 5789 5788 5786 5784 5783 5781 5780 5779 5779 5778 5775 5774 5773 5772 5771 5771 5769 5766 5764 5764 5761 5762 5761 5762 5761 5760 5761 5761 5761 5760 5760 5758 5756 5756 5755 5753 5754 5756 5758 5761 5762
5785 5784 5783 5783 5782 5780 5779 5777 5775 5774 5773 5771 5770 5769 5767 5765 5764 5762 5761 5760 5758 5756 5753 5751 5752 5751 5752 5749 5750 5749 5748 5749 5749 5749 5748 5746 5745 5744 5743 5743 5744 5745 5747 5749 5751
5777 5776 5775 5774 5773 5772 5771 5769 5767 5766 5765 5763 5761 5760 5758 5757 5754 5752 5750 5748 5748 5747 5744 5740 5741 5739 5738 5738 5736 5736 5737 5737 5736 5737 5737 5734 5733 5731 5731 5731 5732 5733 5735 5737 5739
5769 5768 5766 5765 5764 5762 5761 5760 5757 5756 5755 5754 5752 5750 5749 5746 5743 5741 5740 5737 5735 5734 5731 5729 5728 5726 5727 5724 5724 5723 5723 5724 5724 5724 5722 5719 5721 5719 5720 5721 5721 5721 5722 5723 5724
5759 5758 5756 5755 5754 5753 5751 5749 5747 5746 5745 5743 5741 5738 5736 5735 5733 5729 5726 5724 5722 5720 5717 5716 5713 5712 5713 5711 5709 5708 5707 5708 5708 5710 5710 5707 5707 5709 5707 5709 5708 5708 5708 5708 5708